Reflectivity
-20 -20 -20 -20 -20 -20 -20 -20 -20 -20 -20 -20 -20 -20 -20 -20 -20 -20 -20 -20 -20 -20 -20 -20 -20 -20 -20 -20 -20 -20 -20 -20 -20 -20 -20 -20 -20 -20 -20 -20 -20 -20 -20 -20 -20
-9 -18 -1 -20 -20 -20 -20 -20 -20 -20 -20 -20 -20 -20 -20 -20 -20 -20 -20 -20 -20 -20 -20 -20 -20 -20 -20 -20 -20 -20 -20 -20 -20 -20 -20 -20 -20 -20 -20 -20 -20 -20 -20 -20 -20
10 10 10 -20 -20 -20 -20 -20 -20 -20 -20 -20 -20 -20 -20 -20 -20 -20 -20 -20 -20 -20 -20 -20 -20 -20 -20 -20 -20 -20 -20 -20 -20 -20 -20 -20 -20 -20 -20 -20 -20 -20 -20 -20 -20
12 12 8 -20 -20 -20 -20 -20 -20 -20 -20 -20 -20 -20 -20 -20 -20 -20 -20 -20 -20 -20 -20 -20 -20 -20 -20 -20 -20 -20 -20 -20 -20 -20 -20 -20 -20 -20 -20 -20 -20 -20 -20 -20 -20
10 6 12 -10 -20 -20 -20 -20 -20 -20 -20 -20 -20 -20 -20 -20 -20 -20 -20 -20 -20 -20 -20 -20 -20 -20 -20 -20 -20 -20 -20 -20 -20 -20 -20 -20 -20 -20 -20 -20 -20 -20 -20 -20 -20
12 -3 6 -12 -20 -20 -20 -20 -20 -20 -20 -20 -20 -20 -20 -20 -20 -20 -20 -20 -20 -20 -20 -20 -20 -20 -20 -20 -20 -20 -20 -20 -20 -20 -20 -20 -20 -20 -20 -20 -20 -20 -20 -20 -20
0 11 -17 -13 -20 -20 -20 -20 -20 -20 -20 -20 -20 -20 -20 -20 -20 -20 -20 -20 -20 -20 -20 -20 -20 -20 -20 -20 -20 -20 -20 -20 -20 -20 -20 -20 -20 -20 -20 -20 -20 -20 -20 -20 -20
8 9 13 8 -5 -20 -20 -20 -20 -20 -20 -20 -20 -20 -20 -20 -20 -20 -20 -20 -20 -20 -20 -20 -20 -20 -20 -20 -20 -20 -20 -20 -20 -20 -20 -20 -20 -20 -20 -20 -20 -20 -20 -20 -20
13 9 11 9 4 5 -5 -20 -20 -20 -20 -20 -20 -20 -20 -20 -20 -20 -20 -20 -20 -20 -20 -20 -20 -20 -20 -20 -20 -20 -20 -20 -20 -20 -20 -20 -20 -20 -20 -20 -20 -20 -20 -20 -20
1 -20 -20 -20 5 9 -20 -20 -20 -20 -20 -20 -20 -20 -20 -20 -20 -20 -20 -20 -20 -20 -20 -20 -20 -20 -20 -20 -20 -20 -20 -20 -20 -20 -20 -20 -20 -20 -20 -20 -20 -20 -20 -20 -20
-20 -20 -20 -20 -11 -2 -20 -20 -20 -20 -20 -20 -20 -20 -20 -20 -20 -20 -20 -20 -20 -20 -20 -20 -20 -20 -20 -20 -20 -20 -20 -20 -20 -20 -20 -20 -20 -20 -20 -20 -20 -20 -20 -20 -20
-20 -20 3 -19 -20 -20 -20 -20 -20 -20 -20 -20 -20 -20 -20 -20 -20 -20 -20 -20 -20 -20 -20 -20 -20 -20 -20 -20 -20 -20 -20 -20 -20 -20 -20 -20 -20 -20 -20 -20 -20 -20 -20 -20 -20
9 11 11 -20 -20 -20 -20 -20 -20 -20 -20 -20 -20 -20 -20 -20 -20 -20 -20 -20 -20 -20 -20 -20 -20 -20 -20 -20 -20 -20 -20 -20 -20 -20 -20 -20 -20 -20 -20 -20 -20 -20 -20 -20 -20
12 12 7 -20 -20 -20 -20 -20 -20 -20 -20 -20 -20 -20 -20 -20 -20 -20 -20 -20 -20 -20 -20 -20 -20 -20 -20 -20 -20 -20 -20 -20 -20 -20 -20 -20 -20 -20 -20 -20 -20 -20 -20 -20 -20
6 11 11 -20 -20 -20 -20 -20 -20 -20 -20 -20 -20 -20 -20 -20 -20 -20 -20 -20 -20 -20 -20 -20 -20 -20 -20 -20 -20 -20 -20 -20 -20 -20 -20 -20 -20 -20 -20 -20 -20 -20 -20 -20 -20
-20 4 7 -4 -20 -20 -20 -20 -20 -20 -20 -20 -20 -20 -20 -20 -20 -20 -20 -20 -20 -20 -20 -20 -20 -20 -20 -20 -20 -20 -20 -20 -20 -20 -20 -20 -20 -20 -20 -20 -20 -20 -20 -20 -20
-20 -20 1 -20 -20 -20 -20 -20 -20 -20 -20 -20 -20 -20 -20 -20 -20 -20 -20 -20 -20 -20 -20 -20 -20 -20 -20 -20 -20 -20 -20 -20 -20 -20 -20 -20 -20 -20 -20 -20 -20 -20 -20 -20 -20
-20 -20 -20 -20 -20 -20 -20 -20 -20 -20 -20 -20 -20 -20 -20 -20 -20 -20 -20 -20 -20 -20 -20 -20 -20 -20 -20 -20 -20 -20 -20 -20 -20 -20 -20 -20 -20 -20 -20 -20 -20 -20 -20 -20 -20
-20 -20 -20 -20 -20 -20 -20 -20 -20 -20 -20 -20 -20 -20 -20 -20 -20 -20 -20 -20 -20 -20 -20 -20 -20 -20 -20 -20 -20 -20 -20 -20 -20 -20 -20 -20 -20 -20 -20 -20 -20 -20 -20 -20 -20
-20 -20 -20 -20 -20 -20 -20 -20 -20 -20 -20 -20 -20 -20 -20 -20 -20 -20 -20 -20 -20 -20 -20 -20 -20 -20 -20 -20 -20 -20 -20 -20 -20 -20 -20 -20 -20 -20 -20 -20 -20 -20 -20 -20 -20
-20 -20 -20 -20 -20 -20 -20 -20 -20 -20 -20 -20 -20 -20 -20 -20 -20 -20 -20 -20 -20 -20 -20 -20 -20 -20 -20 -20 -20 -20 -20 -20 -20 -20 -20 -20 -20 -20 -20 -20 -20 -20 -20 -20 -20
-20 -20 -20 -20 -20 -20 -20 -20 -20 -20 -20 -20 -20 -20 -20 -20 -20 -20 -20 -20 -20 -20 -20 -20 -20 -20 -20 -20 -20 -20 -20 -20 -20 -20 -20 -20 -20 -20 -20 -20 -20 -20 -20 -20 -20
-20 -20 -20 -20 -20 -20 -20 -20 -20 -20 -20 -20 -20 -20 -20 -20 -20 -20 -20 -20 -20 -20 -20 -20 -20 -20 -20 -20 -20 -20 -20 -20 -20 -20 -20 -20 -20 -20 -20 -20 -20 -20 -20 -20 -20
-20 -20 -20 -20 -20 -20 -20 -20 -20 -20 -20 -20 -20 -20 -20 -20 -20 -20 -20 -20 -20 -20 -20 -20 -20 -20 -20 -20 -20 -20 -20 -20 -20 -20 -20 -20 -20 -20 -20 -20 -20 -20 -20 -20 -20
-20 -20 -20 -20 -20 -20 -20 -20 -20 -20 -20 -20 -20 -20 -20 -20 -20 -20 -20 -20 -20 -20 -20 -20 -20 -20 -20 -20 -20 -20 -20 -20 -20 -20 -20 -20 -20 -20 -20 -20 -20 -20 -20 -20 -20
-20 -20 -20 -20 -20 -20 -20 -20 -20 -20 -20 -20 -20 -20 -20 -20 -20 -20 -20 -20 -20 -20 -20 -20 -20 -20 -20 -20 -20 -20 -20 -20 -20 -20 -20 -20 -20 -20 -20 -20 -20 -20 -20 -20 -20
-20 -20 -20 -20 -20 -20 -7 -10 -20 -20 -20 -20 -20 -20 -20 -20 -20 -20 -20 -20 -20 -20 -20 -20 -20 -20 -20 -20 -20 -20 -20 -20 -20 -20 -20 -20 -20 -20 -20 -20 -20 -20 -20 -20 -20
Wind_Speed
15 15 16 16 16 17 16 15 15 13 13 14 14 11 10 11 4 4 5 7 9 15 16 10 3 2 2 3 3 2 4 1 2 4 2 9 5 4 4 10 0 3 5 8 13
16 16 16 17 16 17 17 16 15 14 13 14 14 13 10 8 3 5 6 13 21 17 9 8 4 2 2 2 1 3 2 4 4 4 6 8 7 8 5 8 3 5 11 16 12
16 16 16 16 18 17 17 17 16 15 14 13 14 13 11 4 1 4 11 18 18 8 5 4 6 3 2 1 1 2 2 2 1 5 11 10 5 2 12 3 6 8 13 15 12
16 16 17 18 18 18 18 18 17 16 16 14 15 14 14 2 1 0 13 17 19 6 6 7 3 2 2 2 3 3 3 4 3 7 6 12 7 5 5 4 10 14 16 13 13
16 17 17 18 19 19 19 18 19 17 16 16 14 15 2 2 6 4 14 14 8 4 7 4 4 2 1 3 6 1 3 3 4 7 8 8 4 4 7 9 12 13 13 13 10
17 17 18 18 19 19 20 19 19 19 16 15 15 14 1 1 3 12 14 11 4 5 6 8 7 5 3 4 2 1 5 2 7 6 4 6 3 4 3 10 13 14 13 12 14
18 17 17 19 19 19 20 20 20 19 17 13 11 4 2 8 9 10 13 9 6 9 7 10 4 2 3 2 1 6 3 3 3 3 5 5 2 5 6 10 12 12 12 13 12
18 19 19 20 20 20 21 21 21 19 14 10 5 1 6 1 11 8 3 4 4 8 6 3 5 5 4 2 3 5 4 1 1 3 3 4 4 3 8 13 10 10 11 12 11
19 19 20 20 21 22 22 23 18 10 4 4 2 2 7 5 3 9 9 6 7 5 7 7 7 5 2 4 4 3 3 4 3 4 4 3 3 5 6 8 11 8 8 10 10
20 19 18 20 21 22 25 14 8 5 1 3 2 3 4 3 2 4 7 7 5 4 3 4 4 2 3 4 3 6 4 3 5 6 3 4 3 5 9 8 10 8 7 7 7
18 18 18 20 21 19 13 2 6 4 3 8 5 3 5 9 3 3 5 7 4 7 1 5 5 6 7 7 6 6 5 7 3 5 4 6 2 7 8 9 8 8 8 8 8
19 19 21 23 21 14 1 6 8 4 8 8 8 7 5 2 5 5 4 5 3 3 1 5 8 5 7 7 4 5 5 5 3 5 3 4 7 6 11 15 13 11 9 10 7
21 22 23 22 21 2 3 2 2 3 2 9 6 6 6 9 8 8 8 4 4 4 5 6 5 6 4 2 1 2 6 6 4 4 3 4 7 4 7 8 8 8 9 7 10
22 22 22 30 2 4 4 0 6 4 5 9 5 9 6 7 5 7 6 7 3 8 5 5 4 3 6 2 4 3 7 8 11 6 4 3 5 6 5 10 11 13 10 11 12
22 20 19 7 4 1 1 6 4 3 3 4 4 1 1 11 5 3 4 5 7 5 6 6 1 5 6 3 4 6 5 6 4 5 5 2 4 9 1 7 15 15 15 14 15
23 20 15 1 1 7 7 7 4 8 9 3 4 4 5 2 3 2 3 6 4 5 1 7 2 3 7 1 2 2 7 10 7 4 3 4 6 8 5 13 7 6 15 18 14
24 17 7 1 5 4 5 4 7 4 5 1 3 3 3 4 4 5 6 5 7 4 3 5 4 3 4 2 2 4 7 4 5 4 7 3 4 11 7 7 11 9 11 14 15
26 19 6 5 3 5 4 6 4 5 6 5 1 2 8 5 2 2 5 4 2 6 3 5 7 5 3 8 8 2 7 8 5 4 4 4 5 7 7 7 5 8 8 10 12
22 2 1 4 7 3 6 2 9 7 4 5 5 3 4 3 6 4 6 7 9 9 9 5 6 4 5 3 6 2 2 4 10 4 2 3 6 9 5 5 5 6 6 9 9
4 4 4 2 6 4 6 8 6 4 5 3 2 1 7 5 6 7 8 6 6 11 4 5 3 5 3 4 4 4 7 5 4 4 3 5 4 6 4 4 5 5 7 7 5
4 5 4 2 2 5 6 8 7 7 3 2 2 4 4 5 8 7 8 5 6 4 5 6 4 6 2 4 9 1 0 8 6 4 7 3 8 8 9 9 9 8 6 5 5
3 4 4 2 4 1 3 6 3 2 3 3 2 4 5 2 5 6 11 9 9 12 10 7 6 5 12 4 3 4 6 7 7 5 1 3 8 3 8 7 6 7 6 2 2
3 4 5 4 1 3 5 4 4 2 3 2 4 5 1 2 4 7 7 7 10 9 11 8 2 2 12 4 1 4 4 6 6 4 6 7 8 3 4 3 4 6 7 6 5
3 5 5 4 1 0 5 4 3 3 6 6 6 7 3 5 6 4 3 4 11 11 11 13 5 10 9 9 5 3 6 5 7 5 6 7 3 4 10 10 7 8 7 8 6
3 2 1 4 4 5 2 5 3 3 5 7 4 11 7 5 3 7 5 4 0 5 6 9 9 7 8 6 5 6 6 9 7 6 8 8 11 15 20 18 18 13 7 7 7
2 3 5 4 4 4 4 5 3 4 4 9 6 10 6 8 8 3 5 5 5 3 6 1 5 8 6 3 6 5 6 8 5 5 5 4 8 6 3 6 8 13 12 8 7
3 2 2 4 4 2 4 4 4 7 9 12 9 4 5 17 16 21 10 3 2 4 5 6 8 5 9 3 2 7 8 9 5 5 9 8 14 10 7 10 16 13 13 13 11
Wind_Direction
353 354 349 345 340 336 335 335 333 334 331 322 321 317 309 312 330 159 242 219 164 160 127 137 109 158 87 80 356 8 66 132 226 183 131 139 119 126 130 134 120 102 129 135 132
351 352 350 344 340 336 332 332 330 330 329 322 316 313 310 316 253 256 258 148 139 154 128 146 133 108 33 32 45 94 92 203 211 176 137 149 120 153 114 146 63 62 87 119 126
356 350 348 343 337 335 331 328 327 325 325 321 314 311 308 310 255 259 135 141 142 151 114 82 102 76 349 45 166 157 236 328 81 114 131 154 112 83 130 206 177 160 142 139 142
353 352 345 342 336 333 329 325 323 323 321 322 316 316 314 197 166 168 147 147 147 135 128 116 85 78 268 300 173 356 280 297 33 87 103 150 126 125 152 225 151 151 152 147 161
354 349 346 340 334 331 326 323 320 319 320 320 319 319 312 360 258 141 136 148 130 105 158 140 146 197 242 229 141 260 3 47 56 81 124 127 127 159 199 105 122 134 153 164 170
352 348 344 340 332 329 325 320 318 316 318 318 319 315 251 273 118 140 133 155 163 145 183 167 201 221 309 242 170 142 58 39 57 79 99 113 157 103 177 129 135 152 168 175 180
349 346 341 336 331 327 322 316 314 311 312 311 313 319 26 228 134 144 146 181 179 186 177 219 182 153 239 315 101 105 92 338 24 132 117 104 100 230 149 136 150 173 174 187 190
348 343 337 334 329 324 318 313 309 305 305 303 295 273 243 44 125 134 183 173 217 222 245 232 155 209 233 145 49 71 45 51 204 157 96 88 259 243 165 150 165 177 189 194 193
348 343 338 334 331 326 320 312 304 301 280 299 317 30 266 136 177 177 157 197 156 195 251 269 136 200 63 84 26 7 190 214 318 214 118 100 260 196 176 170 186 186 191 198 206
346 340 332 332 330 328 318 297 283 325 272 209 258 357 285 223 224 179 193 173 194 179 176 164 74 93 52 104 204 232 217 212 199 218 166 153 270 184 185 178 203 208 208 210 206
332 326 326 331 330 326 334 44 16 359 13 197 205 239 283 296 280 220 164 138 134 60 37 359 41 233 221 228 210 207 215 203 180 170 130 202 193 194 204 204 210 222 222 225 239
332 329 331 330 330 326 247 87 108 204 309 246 237 276 267 18 324 301 118 125 111 195 116 13 236 218 199 213 216 167 183 222 63 136 97 163 257 193 193 219 210 210 221 222 219
338 338 335 329 322 355 339 140 87 106 169 290 201 201 203 148 210 256 148 133 149 182 197 185 243 326 15 348 325 137 181 162 154 121 65 108 317 221 217 207 214 215 226 230 225
339 340 339 328 51 320 280 100 314 185 55 272 238 263 153 150 249 210 206 139 160 213 190 244 288 21 357 333 130 312 160 123 137 117 190 134 258 282 212 209 216 217 211 213 223
337 336 337 340 292 298 298 316 294 70 342 232 212 159 298 156 159 232 207 71 179 186 106 256 314 17 348 257 131 225 85 130 136 94 99 8 62 269 159 230 231 211 213 214 220
327 331 330 101 253 246 316 319 57 44 254 333 170 172 127 212 186 87 124 75 153 150 337 237 264 205 214 224 118 132 74 41 52 78 14 230 136 282 198 219 243 181 206 212 213
322 318 296 206 237 315 308 47 46 159 316 324 221 151 135 175 195 168 146 136 159 116 302 325 248 252 171 167 351 96 60 4 16 14 220 229 113 240 265 267 237 194 199 207 211
323 315 209 218 301 328 54 55 189 238 251 308 358 77 179 154 227 101 119 163 52 98 113 160 314 180 181 182 188 166 147 149 192 196 258 147 230 249 262 289 212 169 187 201 212
319 338 279 270 196 343 83 133 205 210 258 327 320 165 219 193 174 142 192 206 196 169 172 151 265 280 220 165 129 187 170 164 102 5 55 272 287 318 347 45 86 126 160 207 219
333 349 283 37 149 87 89 221 223 222 334 4 264 199 202 195 150 157 178 206 210 185 166 199 300 232 305 107 45 164 152 85 11 141 218 299 280 241 271 197 140 170 198 225 254
27 8 293 88 67 57 198 218 222 235 221 317 304 307 224 200 182 176 204 267 211 137 121 132 118 287 353 183 177 101 76 51 113 114 155 168 259 219 209 198 184 194 189 211 275
8 346 318 15 58 39 181 191 216 249 40 314 248 242 237 222 197 219 197 216 177 147 164 196 152 234 235 239 182 169 174 137 121 221 201 158 269 281 205 196 168 179 204 236 293
356 267 318 68 169 284 262 254 219 217 207 260 277 219 238 277 332 200 206 233 155 146 160 183 247 301 328 5 145 183 166 110 107 94 194 141 258 332 157 187 216 200 214 212 190
19 344 323 44 151 109 340 237 255 242 239 205 235 222 253 282 203 277 251 276 175 181 195 133 141 165 198 207 161 171 179 147 125 117 172 224 196 237 198 193 209 215 213 199 174
37 295 234 310 313 329 259 286 210 259 228 187 266 220 185 266 264 221 231 297 71 151 152 138 186 178 242 217 186 190 181 163 171 178 153 224 193 206 196 192 196 196 190 177 182
38 15 348 280 290 276 174 240 224 305 224 245 229 245 196 217 214 289 191 193 202 230 148 348 206 159 256 198 199 225 205 196 210 145 277 160 244 237 151 122 162 191 185 182 198
332 332 119 275 303 274 228 345 319 332 270 237 225 220 202 236 243 245 223 252 228 182 155 138 131 113 234 191 136 317 206 200 200 187 149 165 217 153 164 195 193 185 182 189 195